Lapse_Rate
5.5 5.6 5.8 5.8 5.8 6.1 6.4 7.2 7.0 6.6 6.7 6.9 6.9 6.9 6.9 6.4 6.1 8.2 8.7 9.1 9.2 8.1 7.3 9.6 9.3 9.1 9.0 8.2 8.3 8.1 6.5 6.5 6.5 6.5 6.5 7.1 6.6 7.6 7.6 7.5 7.7 8.0 7.8 8.3 9.0
5.4 5.5 5.4 5.7 5.9 6.1 6.4 6.8 6.8 6.5 6.5 6.7 7.0 7.1 6.7 6.4 9.2 8.8 9.5 7.6 7.6 7.5 9.3 8.8 8.3 8.6 8.0 7.8 7.8 6.9 6.5 6.5 6.5 6.5 6.5 6.9 6.9 7.2 7.1 7.1 7.2 7.6 7.4 8.5 8.8
5.1 5.2 5.2 5.5 5.7 6.1 6.2 6.7 6.8 6.9 6.4 6.7 6.7 6.9 6.8 7.1 8.4 8.5 7.3 7.6 7.8 8.0 9.6 9.3 8.9 8.3 7.3 7.6 7.4 6.9 6.5 6.5 6.7 7.0 7.2 6.8 6.9 7.5 6.9 6.5 7.2 7.2 7.8 8.3 8.5
4.8 4.9 4.9 5.1 5.4 5.7 6.1 6.4 6.9 7.1 6.9 6.5 6.6 6.6 6.6 9.0 6.5 9.2 7.0 7.2 7.3 8.8 9.3 8.8 8.4 7.4 6.7 6.5 7.5 6.5 6.9 6.7 6.9 7.2 7.1 6.6 7.3 6.9 7.1 7.1 7.3 8.0 8.1 8.2 8.2
4.4 4.6 4.3 4.7 5.1 5.4 5.8 6.2 6.4 6.8 6.9 7.0 6.7 6.6 7.9 8.1 8.0 9.4 7.1 7.8 7.8 9.2 8.8 8.4 7.7 7.5 6.5 6.8 7.0 6.5 6.6 7.0 7.2 6.9 7.2 7.3 6.8 6.7 7.0 7.8 7.6 8.1 8.1 8.1 8.3
4.2 4.2 4.0 4.2 4.6 5.2 5.4 6.0 6.6 6.5 6.6 6.5 7.0 6.7 8.7 6.8 9.7 9.4 8.1 8.4 9.5 9.1 8.7 8.6 7.9 8.0 7.2 6.8 6.6 7.1 6.9 6.9 7.1 7.0 7.1 6.7 6.7 6.9 7.3 8.0 7.8 7.9 8.0 8.2 8.3
4.0 3.9 3.8 3.8 4.1 4.8 5.3 5.8 6.5 6.9 6.5 5.8 7.1 8.5 8.4 7.7 9.8 9.3 8.6 9.5 9.6 9.1 8.4 8.9 8.8 7.9 7.6 6.5 7.6 7.1 6.5 6.5 6.7 6.9 6.6 7.0 6.5 6.5 7.5 7.8 7.6 7.8 8.0 8.1 8.2
3.4 3.5 3.5 3.5 3.7 4.1 4.9 5.5 6.0 6.6 6.9 6.2 6.7 8.5 7.5 9.0 8.8 9.2 9.7 9.2 9.6 9.6 9.2 9.2 9.0 8.1 7.5 7.7 7.0 6.5 6.5 6.5 6.5 6.7 6.8 6.7 6.5 6.5 7.6 7.5 7.3 7.6 7.8 7.9 8.1
2.9 3.0 3.1 3.2 3.3 3.7 4.4 5.0 5.7 5.9 6.4 6.3 6.7 6.8 7.2 8.1 8.7 9.4 9.7 8.8 9.1 9.1 9.2 9.2 8.6 7.5 7.4 6.5 6.5 6.5 6.5 6.5 6.5 6.8 6.5 6.5 6.5 6.6 7.5 7.2 7.1 7.4 7.7 7.8 8.0
2.4 2.4 2.7 2.9 3.0 3.4 4.1 4.6 5.2 5.7 7.5 8.2 8.8 7.8 8.3 7.8 8.8 8.6 9.5 9.3 8.5 8.4 8.0 7.8 7.5 6.5 6.5 6.5 6.5 6.5 6.5 6.5 6.5 6.5 6.5 6.5 6.5 6.5 7.1 7.2 7.2 7.3 7.6 7.8 7.9
1.9 2.1 2.2 2.8 3.0 3.4 4.6 7.3 8.1 7.9 8.6 7.6 7.7 7.6 8.0 8.7 8.3 8.8 9.2 8.7 8.3 7.6 6.5 7.1 6.5 6.5 6.5 6.5 6.5 6.5 6.5 6.5 6.5 6.5 6.5 6.5 6.5 6.5 6.8 6.9 7.0 7.2 7.4 7.6 7.8
1.7 1.8 2.4 2.6 3.3 3.4 5.5 8.5 7.0 7.3 7.0 8.1 8.2 8.2 8.6 8.8 7.5 8.2 8.8 7.4 6.9 6.5 6.6 6.5 6.5 6.5 6.5 6.5 6.5 6.5 6.5 6.5 6.5 6.5 6.5 6.5 6.5 6.5 6.6 6.8 7.0 7.2 7.3 7.5 7.8
1.7 1.9 2.5 2.8 3.4 4.8 7.8 7.3 6.6 7.4 7.0 7.4 8.1 7.9 8.1 8.4 7.3 7.5 8.3 7.7 6.6 6.5 6.5 6.5 6.5 6.5 6.5 6.5 6.5 6.5 6.5 6.5 6.5 6.5 6.5 6.5 6.5 6.5 6.5 6.9 7.2 7.4 7.5 7.7 7.7
1.8 2.3 2.7 3.0 4.2 7.1 8.5 6.2 6.4 7.7 6.5 6.5 6.8 7.6 8.1 8.1 6.9 8.4 8.6 7.6 6.7 6.5 6.5 6.5 6.6 6.5 6.5 6.5 6.5 6.5 6.5 6.5 6.5 6.5 6.5 6.5 6.5 6.5 6.5 6.5 6.5 7.1 7.3 7.5 7.7
1.8 2.6 3.1 2.3 7.0 8.2 6.3 6.2 6.8 7.6 6.5 6.5 6.8 8.2 8.2 7.1 7.3 7.4 7.5 7.7 6.5 6.5 6.5 6.5 6.5 6.5 6.5 6.5 6.5 6.5 6.5 6.5 6.5 6.5 6.5 6.5 6.5 6.5 6.5 6.5 6.5 6.8 7.2 7.5 7.8
1.9 2.5 3.0 5.3 6.7 5.8 5.3 6.0 7.4 6.5 6.5 6.5 6.8 6.6 6.6 7.0 7.0 7.5 7.4 8.0 7.5 6.5 6.5 6.5 7.1 6.5 6.5 6.5 6.5 6.5 6.5 6.5 6.5 6.5 6.5 6.5 6.5 6.5 6.5 6.5 6.5 6.8 7.2 7.5 7.7
1.9 2.5 3.8 5.7 7.8 5.3 5.6 7.6 6.5 6.5 6.5 6.5 6.5 6.5 6.5 6.5 6.5 6.5 6.5 6.5 6.5 6.5 6.5 6.5 6.5 6.5 6.8 6.5 6.5 6.5 6.5 6.5 6.5 6.5 6.5 6.5 6.5 6.5 6.5 6.5 6.5 6.6 7.1 7.6 7.9
1.4 2.2 3.3 4.7 5.0 5.3 7.0 6.6 6.5 6.5 6.5 6.5 6.5 6.5 6.5 6.5 6.5 6.5 6.5 6.5 6.5 6.5 6.5 6.5 6.5 6.5 6.5 6.5 6.5 6.5 6.5 6.5 6.5 6.5 6.5 6.5 6.5 6.5 6.5 6.9 7.1 7.3 7.4 7.7 7.8
1.2 5.2 6.0 5.0 4.4 5.8 7.8 6.5 6.5 6.5 6.5 6.5 6.5 6.5 6.5 6.5 6.5 6.5 6.5 6.5 6.5 6.5 6.5 6.5 6.5 6.5 6.5 6.5 6.5 6.5 6.5 6.5 6.5 6.5 6.5 6.5 6.5 6.5 6.5 6.5 6.8 7.0 7.3 7.4 7.7
6.0 6.8 6.5 3.7 4.2 6.6 6.7 6.5 6.5 6.7 6.6 6.5 6.5 6.5 6.5 6.5 6.5 6.5 6.5 6.5 6.5 6.6 6.7 6.5 6.5 6.5 6.5 6.6 6.6 6.5 6.5 6.5 6.5 6.5 6.5 6.5 6.5 6.5 6.5 6.5 6.5 6.6 7.0 7.4 7.7
5.5 7.7 4.2 3.4 4.7 7.7 6.5 6.5 6.5 7.1 7.1 6.5 6.5 6.5 6.5 6.5 6.5 6.5 6.5 6.5 6.5 6.5 6.7 6.5 6.5 6.5 6.5 6.5 6.5 6.5 6.5 6.5 6.5 6.5 6.5 6.5 6.5 6.5 6.5 6.5 6.5 6.7 7.2 7.5 7.7
6.2 6.6 3.7 4.0 6.9 6.9 6.5 6.5 5.7 6.7 7.3 6.7 6.6 6.5 6.5 6.5 6.5 6.5 6.5 6.5 7.1 6.8 6.5 6.5 6.5 6.5 6.5 6.5 6.5 6.5 6.5 6.5 6.5 6.5 6.5 6.5 6.5 6.5 6.5 6.6 6.8 7.0 7.3 7.7 7.9
7.8 7.6 3.9 4.3 6.5 6.5 6.7 6.5 6.8 6.5 6.5 6.5 6.5 6.5 6.5 6.5 6.5 6.5 6.5 6.9 7.1 6.6 6.5 6.5 6.5 6.5 6.5 6.5 6.5 6.5 6.5 6.5 6.5 6.5 6.5 6.5 6.5 6.5 6.7 6.7 7.0 7.1 7.5 7.7 7.9
7.2 6.5 7.1 7.3 7.1 6.6 6.5 6.5 6.5 7.0 6.7 6.9 6.6 6.7 6.5 6.5 6.5 6.5 6.5 6.6 7.1 6.9 6.3 6.7 6.5 6.5 6.5 6.5 6.5 6.5 6.5 6.5 6.5 6.5 6.5 6.5 6.5 6.5 6.5 6.5 6.8 7.2 7.5 7.7 7.9
6.6 6.8 5.6 6.5 6.6 6.6 6.6 6.5 6.5 6.5 6.9 7.0 6.5 6.5 6.5 6.5 6.5 6.5 6.5 6.5 6.7 6.6 6.8 6.5 6.5 6.5 6.5 6.5 6.5 6.5 6.5 6.5 6.5 6.5 6.5 6.5 6.5 6.5 6.5 6.5 6.9 7.3 7.5 7.6 7.7
7.4 7.2 7.1 7.0 7.1 6.6 6.5 6.5 6.5 6.5 6.5 6.5 6.5 6.5 6.5 6.5 6.5 6.5 6.5 6.5 6.5 6.6 6.5 6.5 6.5 6.5 6.5 6.5 6.5 6.5 6.5 6.5 6.5 6.5 6.5 6.5 6.5 6.5 6.9 7.1 7.0 7.3 7.4 7.4 7.6
4.0 4.1 7.1 6.2 6.7 6.5 6.5 6.5 6.5 6.6 6.9 7.0 6.7 6.5 6.5 6.6 7.0 7.2 7.3 7.1 6.8 6.5 6.5 6.5 6.5 6.5 6.5 6.5 6.5 6.5 6.5 6.5 6.5 6.5 6.5 6.5 6.5 6.5 6.5 6.6 6.9 7.2 7.4 7.5 7.7
Wind_Speed
13 14 14 16 19 17 14 13 9 6 8 7 4 2 4 6 5 8 11 3 4 4 10 7 8 8 8 8 7 4 8 14 18 15 7 8 11 4 4 6 3 4 6 6 21
10 12 12 15 17 16 15 14 9 6 5 5 4 2 7 9 9 11 6 1 4 4 11 7 10 9 8 12 8 11 13 21 12 8 3 9 10 10 7 9 6 7 5 19 20
8 9 11 13 15 15 18 17 11 7 5 4 1 1 6 9 7 3 7 4 10 10 10 6 8 9 14 10 12 10 16 17 5 4 2 6 7 7 7 11 8 12 15 18 19
8 8 8 9 12 12 17 18 17 6 3 1 2 2 6 9 3 6 5 6 9 12 10 8 10 12 12 12 15 10 16 11 7 3 2 2 3 7 8 4 6 1 18 19 19
8 7 7 5 7 9 13 16 17 17 11 5 2 6 6 5 5 5 8 8 10 10 11 9 10 13 14 15 14 13 14 5 2 3 3 1 4 6 7 5 6 9 16 17 16
8 8 8 6 3 5 8 11 14 14 13 11 4 0 5 7 5 8 10 4 12 11 10 7 6 6 10 10 13 13 5 8 4 6 4 5 4 3 7 8 8 11 13 14 16
9 9 9 8 5 6 6 6 9 12 12 11 6 4 5 4 4 8 2 2 8 6 7 4 4 7 3 6 11 5 10 7 7 7 5 7 7 11 8 10 9 10 11 11 12
8 9 10 9 8 7 6 6 6 7 7 7 7 4 4 3 7 5 2 3 3 5 4 2 4 7 7 4 6 9 13 11 13 9 4 7 14 13 8 10 10 11 11 11 13
7 9 10 10 9 8 6 5 7 7 6 7 3 2 2 1 3 4 3 3 4 3 2 2 4 5 4 9 10 13 13 17 10 12 6 12 7 10 5 8 10 10 11 11 12
7 8 10 9 9 8 7 6 2 6 6 6 5 5 2 2 2 1 1 4 3 4 4 5 5 7 8 11 13 17 17 20 12 10 9 12 7 5 4 8 11 10 11 13 14
6 7 8 9 8 7 7 4 4 4 4 4 5 3 2 3 2 2 2 3 2 3 7 8 6 11 14 14 12 9 19 15 14 4 9 12 12 8 7 6 10 11 12 13 13
7 7 7 7 7 6 6 4 4 3 1 0 4 2 1 4 2 4 3 2 5 6 6 5 8 13 2 7 9 9 16 13 4 3 8 15 14 11 12 12 12 11 12 13 13
8 6 6 4 4 4 2 2 2 2 4 3 1 2 2 3 3 4 4 1 4 5 9 7 2 1 4 9 12 8 13 15 6 8 5 2 13 15 13 13 12 13 12 13 15
9 6 3 4 1 1 1 1 2 2 3 4 2 3 2 3 1 1 2 4 5 5 4 6 3 4 8 11 12 12 10 9 7 11 10 8 8 18 17 13 13 12 12 11 12
5 5 1 4 2 1 4 5 4 3 2 3 2 2 1 3 4 4 0 3 3 4 3 0 2 5 8 1 1 3 2 5 6 11 3 6 5 8 5 11 14 11 11 10 11
4 2 4 3 2 2 1 4 4 2 2 2 1 1 3 3 2 3 2 2 2 2 1 2 1 2 6 1 1 2 4 5 3 3 4 6 6 9 8 6 9 6 9 7 8
3 2 3 3 3 1 1 2 3 2 2 3 2 1 2 3 4 3 3 6 2 0 3 3 2 2 2 4 4 1 9 3 4 3 4 1 3 7 6 5 6 6 8 6 7
3 3 3 3 2 2 3 4 3 3 2 1 3 5 4 4 2 4 4 5 5 4 4 3 3 2 2 4 2 6 4 4 4 6 8 3 7 3 6 6 6 5 7 8 9
3 2 2 2 2 3 5 1 1 2 3 6 3 5 3 4 2 4 6 3 1 5 3 3 4 3 2 2 2 4 6 3 4 0 4 6 6 6 6 6 6 8 9 10 10
2 2 1 1 2 3 3 2 1 0 1 2 5 1 4 1 3 4 6 1 2 2 2 2 3 0 3 2 3 3 6 5 3 3 5 5 5 2 6 7 7 9 10 10 9
3 3 3 1 2 4 2 2 1 2 2 3 3 5 4 4 5 3 2 2 1 2 3 5 4 3 3 6 4 4 4 5 3 3 4 4 3 3 4 5 9 9 10 10 10
2 2 2 2 2 0 2 3 4 1 2 2 4 3 4 4 4 3 3 3 1 1 2 1 4 3 0 4 1 3 4 5 4 5 1 4 2 2 5 5 9 10 10 10 9
3 2 2 2 3 3 1 1 1 2 2 1 2 2 3 3 4 3 1 2 0 3 3 1 3 2 2 2 3 6 10 6 2 2 5 5 2 2 6 7 8 11 10 10 10
2 2 2 2 1 3 2 0 1 2 2 2 3 2 4 4 3 3 3 0 1 1 4 4 3 7 4 3 1 4 9 12 10 5 9 11 8 8 8 9 9 10 10 10 9
1 2 1 2 2 2 2 2 2 1 3 3 4 3 2 4 4 3 2 2 3 2 2 2 5 4 9 8 5 7 8 13 16 17 8 8 9 3 7 9 11 10 11 11 10
3 2 3 2 2 4 2 3 3 2 3 3 4 2 4 4 2 6 4 2 2 3 3 3 3 2 5 2 7 12 13 14 17 17 19 17 18 4 6 2 9 11 12 11 11
1 1 3 3 3 3 2 3 4 1 5 4 3 3 6 7 4 6 5 5 4 4 6 3 3 2 4 1 6 11 17 18 11 8 12 11 5 7 5 4 6 9 11 11 11
Wind_Direction
17 18 19 9 2 355 354 347 339 327 326 322 349 11 153 142 161 213 235 285 300 248 287 275 240 223 229 221 231 257 224 223 217 224 227 155 167 183 46 129 176 135 28 105 142
9 13 13 9 7 9 359 349 332 326 318 325 330 23 168 175 224 246 245 354 245 265 270 265 217 200 209 210 204 216 219 220 222 221 230 186 198 162 166 160 159 132 111 124 147
349 358 7 8 9 17 15 3 351 320 326 315 297 291 175 188 246 235 46 318 243 254 259 276 279 215 223 212 208 212 227 225 153 108 308 183 202 157 212 194 182 183 153 153 159
325 335 348 1 11 16 18 11 7 348 319 344 229 218 194 226 235 67 0 311 231 240 243 241 228 206 209 204 205 236 224 260 145 143 235 183 221 203 216 84 9 159 161 163 168
315 316 319 339 11 15 19 16 12 21 25 24 135 154 204 219 268 23 327 269 205 216 224 224 220 210 214 205 196 220 207 211 160 185 211 340 238 262 212 109 107 128 155 171 171
315 309 303 309 338 2 13 12 16 16 17 23 87 201 267 248 23 357 338 178 187 205 215 224 240 229 255 229 200 197 218 202 166 189 199 183 218 254 187 140 135 151 167 176 176
315 311 302 302 296 292 320 346 359 14 14 14 358 308 260 354 350 346 351 164 190 222 215 224 300 230 306 218 215 271 187 194 182 185 180 189 225 223 143 174 155 170 170 173 181
314 314 306 304 298 295 303 298 311 334 344 334 321 296 292 11 324 279 105 160 192 236 313 283 263 281 254 41 204 210 222 193 180 173 169 210 225 191 170 166 182 168 168 180 185
310 311 308 307 304 296 300 300 295 291 293 288 260 244 85 316 275 6 317 208 175 218 236 261 248 243 202 214 185 214 200 208 157 195 155 205 218 141 190 183 176 181 172 182 182
314 309 306 303 303 298 289 282 255 277 206 223 259 246 156 69 15 46 71 172 211 180 195 211 224 220 210 205 200 200 228 202 186 189 213 198 229 159 187 191 203 193 181 188 187
329 308 299 298 300 297 278 230 214 172 218 2 5 23 109 106 183 160 146 179 182 221 205 202 215 214 206 213 228 284 213 221 195 142 217 210 223 185 184 182 211 202 198 197 195
325 311 295 292 298 295 278 298 42 7 36 188 296 288 286 324 175 149 193 235 206 220 209 180 233 228 309 234 246 280 220 212 108 107 224 214 232 221 199 211 207 206 206 202 192
329 315 299 285 279 261 302 65 329 285 277 121 43 349 36 246 7 144 214 141 243 222 213 214 171 114 254 213 218 237 230 215 221 172 232 255 245 226 222 225 215 231 226 207 196
334 323 305 160 192 5 239 46 271 288 275 63 134 116 199 282 146 355 270 304 202 228 223 267 65 230 235 223 209 219 235 298 162 187 216 202 248 218 203 205 211 215 212 216 195
336 334 187 239 53 266 7 321 289 235 357 12 76 61 196 283 122 156 320 237 248 168 236 198 247 221 230 166 222 5 291 203 205 217 228 188 240 244 110 220 215 210 197 196 187
332 335 178 252 244 66 5 325 269 238 34 33 318 198 210 190 192 139 201 195 347 243 284 336 124 330 7 35 159 111 174 151 172 243 236 176 230 241 180 228 152 169 168 173 173
339 128 282 324 4 351 201 220 273 350 160 4 348 312 293 157 178 218 194 194 241 88 253 181 138 102 287 200 122 249 190 153 196 203 229 156 221 259 91 113 135 144 141 147 155
159 167 47 25 17 302 250 216 33 15 356 47 296 290 254 179 195 219 207 206 210 257 301 200 214 200 359 346 58 204 250 279 203 201 200 144 223 216 71 104 114 101 114 124 135
178 171 165 57 330 274 266 35 60 47 339 322 267 270 223 200 272 221 234 191 155 205 282 244 173 145 45 352 328 135 222 3 305 286 227 177 236 152 140 132 127 114 129 130 128
262 237 97 20 288 248 271 12 29 309 297 259 296 289 304 185 266 206 180 89 184 240 228 331 249 113 112 213 163 252 334 238 210 244 224 180 244 248 188 173 136 139 134 126 120
261 263 86 240 241 227 358 24 205 175 287 271 313 294 293 309 275 275 341 119 214 172 259 289 264 116 195 200 217 185 232 237 290 289 298 239 157 24 132 166 160 142 136 141 138
297 275 65 238 248 352 18 6 354 293 205 278 297 285 295 321 284 286 310 2 66 279 246 69 312 249 230 83 25 275 275 276 257 221 268 301 317 115 107 128 140 141 142 135 134
291 332 143 258 346 20 120 136 277 289 295 286 279 294 325 289 291 286 301 98 6 282 327 95 222 246 178 188 198 230 208 235 231 326 254 277 221 154 138 142 149 153 153 149 141
290 290 157 194 327 322 321 149 295 189 266 275 305 279 291 272 244 307 295 137 146 251 23 327 280 259 295 12 73 203 208 214 211 218 241 232 263 170 174 170 167 160 159 151 145
310 77 25 320 120 330 298 324 298 255 215 233 206 246 308 302 291 275 298 237 197 161 184 258 278 309 292 284 239 257 227 205 211 226 232 242 254 313 172 184 177 164 157 154 154
307 291 172 280 289 273 178 209 263 230 217 191 247 229 214 239 260 298 323 261 330 178 226 188 270 307 275 242 251 261 250 236 228 238 246 258 267 232 135 61 157 171 169 171 164
94 117 283 130 209 248 225 213 237 226 204 258 260 271 250 282 294 279 256 267 289 284 217 232 253 246 264 260 281 266 244 230 227 231 242 237 292 123 131 177 191 177 180 174 165